(314039) = 2004 YT36

Discovered at Mount Lemmon on 2004-12-20 by Mt. Lemmon Survey.

Orbit

Orbit type: Main Belt

Note: WebGL enabled browser required.

epoch2023-02-25.0
epoch JD2460000.5
perihelion date2021-11-12.80890
perihelion JD2459531.30890
argument of perihelion (°)253.20266
ascending node (°)119.76017
inclination (°)7.71088
eccentricity0.1286587
perihelion distance (AU)2.0260556
Tisserand w.r.t. Jupiter3.6
ΔV w.r.t. Earth (km/sec)9.1
semimajor axis (AU)2.3252146
mean anomaly (°)130.42446
mean daily motion (°/day)0.27797730
aphelion distance (AU)2.624
period (years)3.55
P-vector [x]0.96700104
P-vector [y]0.25296057
P-vector [z]-0.03033046
Q-vector [x]-0.22658730
Q-vector [y]0.90833443
Q-vector [z]0.35154909
absolute magnitude17.27
phase slope0.15
uncertainty0
referenceMPEC 2023-F189
observations used266
oppositions11
arc length (days)10698
first opposition used1993
last opposition used2023
residual rms (arc-secs)0.82
perturbers coarse indicatorM-v
perturbers precise indicator003Ek
first observation date used1993-12-10.0
last observation date used2023-03-26.0
computer nameMPCLINUX
JD of orbit computation2456966.706870
perihelion JD uncertainty (days)6.5459E-05
argument of perihelion uncertainty (°)4.5527E-05
ascending node uncertainty (°)4.1286E-05
inclination uncertainty (°)4.7626E-06
eccentricity uncertainty 6.3022E-08
perihelion distance uncertainty (AU)1.5100E-07
Minimum Orbit Intersection Distances (in AU)
for orbit epoch: 2460000.5, reference: E2023-FI9
Mercury1.66957
Venus1.30342
Earth1.03971
Mars0.63868
Jupiter2.85088
Saturn6.73532
Uranus15.8572
Neptune27.8221

Observations

275 total observations over interval: 1993 12 10.30867 – 2023 03 26.290225
These data are available for download (format description).

Date (UT) J2000 RA J2000 Dec Magn Location Ref
1993 12 10.30867 04 08 51.17 +09 57 38.7   691 – Steward Observatory, Kitt Peak-Spacewatch MPS 234248
1993 12 10.34866 04 08 48.88 +09 57 45.0 20.0 V 691 – Steward Observatory, Kitt Peak-Spacewatch MPS 234248
1993 12 10.39211 04 08 46.33 +09 57 51.9   691 – Steward Observatory, Kitt Peak-Spacewatch MPS 234248
2004 12 20.34260 08 37 56.12 +16 47 58.9 19.8 R G96 – Mt. Lemmon Survey MPS 233392
2004 12 20.35443 08 37 55.80 +16 48 02.3 20.6 R G96 – Mt. Lemmon Survey MPS 233392
2004 12 20.36623 08 37 55.42 +16 48 05.7 19.8 R G96 – Mt. Lemmon Survey MPS 233392
2004 12 20.37803 08 37 55.05 +16 48 09.5 19.9 R G96 – Mt. Lemmon Survey MPS 233392
2005 01 13.23905 08 18 41.71 +19 17 51.3 20.5 V 691 – Steward Observatory, Kitt Peak-Spacewatch MPS 233392
2005 01 13.26461 08 18 40.01 +19 18 02.3 20.5 V 691 – Steward Observatory, Kitt Peak-Spacewatch MPS 233392
2005 01 13.29043 08 18 38.35 +19 18 13.7 20.3 V 691 – Steward Observatory, Kitt Peak-Spacewatch MPS 233392
2005 03 14.16127 07 41 44.56 +23 56 39.6 20.0 R G96 – Mt. Lemmon Survey MPS 234248
2005 03 14.16782 07 41 44.65 +23 56 40.0 20.8 R G96 – Mt. Lemmon Survey MPS 234248
2005 03 14.17440 07 41 44.71 +23 56 40.3 20.3 R G96 – Mt. Lemmon Survey MPS 234248
2005 03 14.18101 07 41 44.82 +23 56 40.7 20.2 R G96 – Mt. Lemmon Survey MPS 234248
2007 09 21.34093 02 29 55.71 +00 38 51.2 20.0   704 – Lincoln Laboratory ETS, New Mexico MPS 244690
2007 09 21.37697 02 29 55.32 +00 38 36.2 20.1   704 – Lincoln Laboratory ETS, New Mexico MPS 244690
2007 09 21.38898 02 29 55.18 +00 38 31.5 20.1   704 – Lincoln Laboratory ETS, New Mexico MPS 244690
2007 10 10.31115 02 20 47.14 -01 33 38.3 19.1 V 703 – Catalina Sky Survey MPS 234248
2007 10 10.31765 02 20 46.82 -01 33 40.2 19.7 V 703 – Catalina Sky Survey MPS 234248
2007 10 10.32417 02 20 46.50 -01 33 43.7 19.3 V 703 – Catalina Sky Survey MPS 234248
2007 10 10.33069 02 20 46.21 -01 33 46.9 19.6 V 703 – Catalina Sky Survey MPS 234248
2007 10 19.30661 02 13 17.43 -02 29 38.5 19.2 V 703 – Catalina Sky Survey MPS 234248
2007 10 19.31583 02 13 16.89 -02 29 41.5 19.2 V 703 – Catalina Sky Survey MPS 234248
2007 10 19.32506 02 13 16.32 -02 29 44.4 19.5 V 703 – Catalina Sky Survey MPS 234248
2007 10 19.33431 02 13 15.88 -02 29 48.2 19.3 V 703 – Catalina Sky Survey MPS 234248
2007 11 02.23806 02 00 32.00 -03 25 17.9 19.7 V 703 – Catalina Sky Survey MPS 234248
2007 11 02.24456 02 00 31.53 -03 25 19.2 19.9 V 703 – Catalina Sky Survey MPS 234248
2007 11 02.25108 02 00 31.28 -03 25 18.7 20.1 V 703 – Catalina Sky Survey MPS 234248
2007 11 02.25757 02 00 30.92 -03 25 20.0 19.6 V 703 – Catalina Sky Survey MPS 234248
2007 11 11.20111 01 53 11.97 -03 33 56.9 19.8 V 703 – Catalina Sky Survey MPS 234248
2007 11 11.20812 01 53 11.68 -03 33 57.9 20.0 V 703 – Catalina Sky Survey MPS 234248
2007 11 11.21516 01 53 11.36 -03 33 56.8 19.7 V 703 – Catalina Sky Survey MPS 234248
2007 11 11.22215 01 53 11.07 -03 33 56.5 19.7 V 703 – Catalina Sky Survey MPS 234248
2011 12 30.20381 07 29 12.29 +18 30 21.8 20.4 V 691 – Steward Observatory, Kitt Peak-Spacewatch MPS 404649
2011 12 30.22155 07 29 11.15 +18 30 28.0 20.4 V 691 – Steward Observatory, Kitt Peak-Spacewatch MPS 404649
2011 12 30.23929 07 29 10.00 +18 30 34.1 20.1 V 691 – Steward Observatory, Kitt Peak-Spacewatch MPS 404649
2012 01 03.23911 07 24 53.31 +18 54 03.4 20.3 V 691 – Steward Observatory, Kitt Peak-Spacewatch MPS 405935
2012 01 03.25810 07 24 52.03 +18 54 10.3 20.6 V 691 – Steward Observatory, Kitt Peak-Spacewatch MPS 405935
2012 01 03.27335 07 24 51.00 +18 54 16.2 20.5 V 691 – Steward Observatory, Kitt Peak-Spacewatch MPS 405935
2012 01 24.31662 07 02 27.977 +20 57 54.34 20.9 g F51 – Pan-STARRS 1, Haleakala MPS 408788
2012 01 24.32953 07 02 27.228 +20 57 58.48 20.4 r F51 – Pan-STARRS 1, Haleakala MPS 408788
2012 01 24.34172 07 02 26.520 +20 58 02.62 20.4 r F51 – Pan-STARRS 1, Haleakala MPS 408788
2012 02 12.23479 06 49 58.567 +22 27 02.98 20.5 i F51 – Pan-STARRS 1, Haleakala MPS 412953
2012 02 12.24812 06 49 58.260 +22 27 05.99 20.6 i F51 – Pan-STARRS 1, Haleakala MPS 412953
2013 04 11.40762 14 56 53.01 -04 08 59.6 20.4 V G96 – Mt. Lemmon Survey MPS 463976
2013 04 11.41598 14 56 52.62 -04 08 57.0 20.5 V G96 – Mt. Lemmon Survey MPS 463976
2013 04 11.42442 14 56 52.26 -04 08 54.1 20.4 V G96 – Mt. Lemmon Survey MPS 463976
2013 04 11.43297 14 56 51.86 -04 08 51.2 20.7 V G96 – Mt. Lemmon Survey MPS 463976
2013 04 17.50478 14 52 00.625 -03 35 24.05 20.7 w F51 – Pan-STARRS 1, Haleakala MPS 464957
2013 04 17.51995 14 51 59.809 -03 35 19.13 20.8 w F51 – Pan-STARRS 1, Haleakala MPS 464957
2013 04 17.53509 14 51 59.002 -03 35 14.10 20.9 w F51 – Pan-STARRS 1, Haleakala MPS 464957
2013 04 17.55025 14 51 58.197 -03 35 09.05 20.8 w F51 – Pan-STARRS 1, Haleakala MPS 464957
2013 04 19.23442 14 50 31.10 -03 26 07.5 20.7 V 691 – Steward Observatory, Kitt Peak-Spacewatch MPS 464957
2013 04 19.25209 14 50 30.11 -03 26 01.8 21.1 V 691 – Steward Observatory, Kitt Peak-Spacewatch MPS 464957
2013 04 19.26975 14 50 29.21 -03 25 55.9 20.6 V 691 – Steward Observatory, Kitt Peak-Spacewatch MPS 464957
2013 05 10.38772 14 30 28.887 -01 54 47.18 20.7 w F51 – Pan-STARRS 1, Haleakala MPS 468599
2013 05 10.40259 14 30 28.012 -01 54 44.53 20.9 w F51 – Pan-STARRS 1, Haleakala MPS 468599
2013 05 10.41746 14 30 27.145 -01 54 41.98 20.7 w F51 – Pan-STARRS 1, Haleakala MPS 468599
2013 05 10.43231 14 30 26.286 -01 54 39.35 20.8 w F51 – Pan-STARRS 1, Haleakala MPS 468599
2014 08 06.57998 01 09 29.058 -02 12 26.68 20.5 w F51 – Pan-STARRS 1, Haleakala MPS 526448
2014 08 06.58064 01 09 29.078 -02 12 26.77 20.5 w F51 – Pan-STARRS 1, Haleakala MPS 526448
2014 08 06.59118 01 09 29.503 -02 12 28.38 20.5 w F51 – Pan-STARRS 1, Haleakala MPS 526448
2014 08 06.59184 01 09 29.527 -02 12 28.52 20.6 w F51 – Pan-STARRS 1, Haleakala MPS 526448
2014 08 06.60237 01 09 29.936 -02 12 30.21 20.5 w F51 – Pan-STARRS 1, Haleakala MPS 526448
2014 08 06.60303 01 09 29.967 -02 12 30.30 20.6 w F51 – Pan-STARRS 1, Haleakala MPS 526448
2014 08 06.61357 01 09 30.381 -02 12 31.94 20.5 w F51 – Pan-STARRS 1, Haleakala MPS 526448
2014 08 06.61422 01 09 30.409 -02 12 32.08 20.6 w F51 – Pan-STARRS 1, Haleakala MPS 526448
2014 08 20.57240 01 16 34.607 -03 09 40.55 19.9 i F51 – Pan-STARRS 1, Haleakala MPS 527922
2014 08 20.58380 01 16 34.788 -03 09 44.37 19.7 i F51 – Pan-STARRS 1, Haleakala MPS 527922
2014 08 20.59522 01 16 34.959 -03 09 48.15 19.8 i F51 – Pan-STARRS 1, Haleakala MPS 527922
2014 08 20.60664 01 16 35.128 -03 09 51.98 19.8 i F51 – Pan-STARRS 1, Haleakala MPS 527922
2014 09 03.42893 01 17 38.34 -04 44 09.8 20.0 V 703 – Catalina Sky Survey MPS 531290
2014 09 03.43493 01 17 38.26 -04 44 11.9 19.6 V 703 – Catalina Sky Survey MPS 531290
2014 09 03.44093 01 17 38.23 -04 44 16.0 20.3 V 703 – Catalina Sky Survey MPS 531290
2014 09 03.44693 01 17 38.08 -04 44 17.4 20.4 V 703 – Catalina Sky Survey MPS 531290
2014 10 02.36130 01 01 36.20 -08 51 34.6 19.5 V 703 – Catalina Sky Survey MPS 538654
2014 10 02.37971 01 01 35.17 -08 51 42.0 18.4 V 703 – Catalina Sky Survey MPS 538654
2014 10 02.38672 01 01 34.82 -08 51 46.4 18.7 V 703 – Catalina Sky Survey MPS 538654
2014 10 14.20628 00 51 33.05 -10 04 40.5 19.3 R H15 – ISON-NM Observatory, Mayhill MPS 540295
2014 10 14.21656 00 51 32.62 -10 04 43.4 19.3 R H15 – ISON-NM Observatory, Mayhill MPS 540295
2014 10 14.22675 00 51 32.10 -10 04 46.2 19.2 R H15 – ISON-NM Observatory, Mayhill MPS 540295
2014 10 14.26000 00 51 30.39 -10 04 54.4 19.4 V 703 – Catalina Sky Survey MPS 540295
2014 10 14.26755 00 51 29.94 -10 04 56.5 19.6 V 703 – Catalina Sky Survey MPS 540295
2014 10 14.27509 00 51 29.59 -10 04 59.1 19.5 V 703 – Catalina Sky Survey MPS 540295
2014 10 14.28495 00 51 29.08 -10 05 01.5 19.5 V 703 – Catalina Sky Survey MPS 540295
2014 11 19.15147 00 36 10.22 -09 30 16.5 19.9 r G45 – Space Surveillance Telescope, Atom Site MPS 558173
2014 11 19.15757 00 36 10.24 -09 30 13.8 19.9 r G45 – Space Surveillance Telescope, Atom Site MPS 558173
2014 11 19.16171 00 36 10.26 -09 30 11.9 19.7 r G45 – Space Surveillance Telescope, Atom Site MPS 558173
2014 11 19.16670 00 36 10.29 -09 30 10.1 20.6 r G45 – Space Surveillance Telescope, Atom Site MPS 558173
